Weather History for Ephrata, WA

Change the Weather History Date:

Thursday, November 28, 2013

  Actual Average Record
Temperature  
Mean Temperature 30 °F 32 °F  
Max Temperature 40 °F 39 °F 58 °F (1995)
Min Temperature 20 °F 25 °F 1 °F (1985)
Degree Days  
Heating Degree Days 35 33  
Month to date heating degree days 730 771  
Since 1 July heating degree days 1298 1352  
Cooling Degree Days 0 0  
Month to date cooling degree days 0 0  
Year to date cooling degree days 1084 772  
Moisture  
Dew Point 24 °F    
Average Humidity 80    
Maximum Humidity 100    
Minimum Humidity 59    
Precipitation  
Precipitation 0.00 in 0.04 in 0.64 in (2001)
Month to date precipitation 0.59 0.98  
Year to date precipitation 5.70 6.53  
Sea Level Pressure  
Sea Level Pressure 30.23 in    
Wind  
Wind Speed 3 mph (NNE)    
Max Wind Speed 9 mph    
Max Gust Speed 12 mph    
Visibility 6 miles    
Events Fog    
T = Trace of Precipitation, MM = Missing Value Source: NWS Daily Summary

Daily Weather History Graph

Daily Weather History Graph

Search for Another Location

Airport:

Trip Planner

Search our weather history database for the weather conditions in past years. The results will help you decide how hot, cold, wet, or windy it might be!

Date:

Astronomy

Nov. 28, 2013 Rise Set
Actual Time 7:20 AM PST 4:11 PM PST
Civil Twilight 6:46 AM PST 4:45 PM PST
Nautical Twilight 6:07 AM PST 5:24 PM PST
Astronomical Twilight 5:31 AM PST 6:00 PM PST
Moon 2:11 AM PST (11/28) 1:39 PM PST (11/28)
Length of Visible Light 9h 59m
Length of Day
8h 50m
Waning Crescent, 21% of the Moon is Illuminated
Nov 28
Waning Crescent
Dec 2
New
Dec 9
First Quarter
Dec 17
Full
Dec 25
Last Quarter

Hourly Weather History & Observations

Time (PST) Temp. Windchill Dew Point Humidity Pressure Visibility Wind Dir Wind Speed Gust Speed Precip Events Conditions
12:53 AM 27.0 °F 23.0 °F 23.0 °F 85% 30.19 in 10.0 mi NNW 3.5 mph - N/A   Clear
1:53 AM 28.0 °F 24.2 °F 23.0 °F 81% 30.19 in 10.0 mi NNW 3.5 mph - N/A   Clear
2:53 AM 23.0 °F 17.0 °F 21.0 °F 92% 30.19 in 10.0 mi North 4.6 mph - N/A   Clear
3:53 AM 23.0 °F 17.0 °F 19.9 °F 88% 30.20 in 10.0 mi North 4.6 mph - N/A   Clear
4:53 AM 27.0 °F 21.6 °F 23.0 °F 85% 30.20 in 10.0 mi NNW 4.6 mph - N/A   Clear
5:53 AM 21.9 °F 15.7 °F 19.0 °F 89% 30.22 in 10.0 mi NNE 4.6 mph - N/A   Clear
6:53 AM 21.0 °F 16.2 °F 18.0 °F 88% 30.23 in 10.0 mi NW 3.5 mph - N/A   Clear
7:53 AM 23.0 °F - 19.9 °F 88% 30.24 in 10.0 mi Calm Calm - N/A   Clear
8:53 AM 26.1 °F - 21.9 °F 84% 30.25 in 10.0 mi Calm Calm - N/A   Clear
9:53 AM 32.0 °F 28.7 °F 26.1 °F 79% 30.25 in 10.0 mi NNE 3.5 mph - N/A   Clear
10:53 AM 35.1 °F - 27.0 °F 72% 30.24 in 10.0 mi Calm Calm - N/A   Clear
11:53 AM 37.9 °F - 27.0 °F 65% 30.22 in 10.0 mi Calm Calm - N/A   Clear
12:53 PM 39.0 °F - 27.0 °F 62% 30.21 in 10.0 mi Calm Calm - N/A   Clear
1:53 PM 39.0 °F 36.8 °F 27.0 °F 62% 30.20 in 10.0 mi SSE 3.5 mph - N/A   Clear
2:53 PM 36.0 °F 29.6 °F 26.1 °F 67% 30.21 in 10.0 mi SSE 8.1 mph - N/A   Clear
3:53 PM 30.0 °F 25.2 °F 25.0 °F 82% 30.23 in 4.0 mi SE 4.6 mph - N/A   Haze
4:53 PM 26.1 °F 21.9 °F 23.0 °F 88% 30.25 in 3.0 mi SE 3.5 mph - N/A   Clear
5:06 PM 24.8 °F 19.1 °F 21.2 °F 86% 30.19 in 2.5 mi SE 4.6 mph - N/A   Partly Cloudy
5:14 PM 24.8 °F 19.1 °F 23.0 °F 93% 30.20 in 1.2 mi ESE 4.6 mph - N/A   Mostly Cloudy
5:26 PM 26.6 °F - 24.8 °F 93% 30.20 in 0.8 mi Calm Calm - N/A   Mist
5:37 PM 26.6 °F - 24.8 °F 93% 30.19 in 0.2 mi Calm Calm - N/A Fog Light Freezing Fog
5:53 PM 27.0 °F - 26.1 °F 96% 30.25 in 0.2 mi Calm Calm - N/A Fog Light Freezing Fog
6:53 PM 26.1 °F - 25.0 °F 96% 30.25 in 0.2 mi Calm Calm - N/A Fog Light Freezing Fog
7:53 PM 26.1 °F 21.9 °F 25.0 °F 96% 30.26 in 0.2 mi NNE 3.5 mph - N/A Fog Light Freezing Fog
8:53 PM 26.1 °F 21.9 °F 25.0 °F 96% 30.26 in 0.2 mi NE 3.5 mph - N/A Fog Light Freezing Fog
9:53 PM 26.1 °F 21.9 °F 25.0 °F 96% 30.27 in 0.2 mi North 3.5 mph - N/A Fog Light Freezing Fog
10:53 PM 26.1 °F 20.5 °F 25.0 °F 96% 30.27 in 0.2 mi North 4.6 mph - N/A Fog Light Freezing Fog
11:53 PM 26.1 °F - 24.1 °F 92% 30.27 in 0.2 mi Calm Calm - N/A Fog Light Freezing Fog